Saranac Lake, NY

10:28 AM EDT on June 26, 2017 (GMT -0400)
Adirondack Regional

Weather History for KSLK - January, 2014

Change the Weather History Date:

Monday, January 13, 2014

  Actual Average Record
Temperature  
Mean Temperature 42 °F 13 °F  
Max Temperature 44 °F 25 °F 59 °F (2005)
Min Temperature 39 °F 2 °F -27 °F (1968)
Degree Days  
Heating Degree Days 23 52  
Month to date heating degree days 673 667  
Since 1 July heating degree days 4511 4366  
Cooling Degree Days 0 0  
Month to date cooling degree days 0  
Year to date cooling degree days 0  
Moisture  
Dew Point 24 °F    
Average Humidity 75    
Maximum Humidity 100    
Minimum Humidity 49    
Precipitation  
Precipitation T in 0.06 in 0.42 in (1993)
Month to date precipitation 1.29 0.91  
Year to date precipitation 1.29 0.91  
Sea Level Pressure  
Sea Level Pressure 29.82 in    
Wind  
Wind Speed 9 mph (SW)    
Max Wind Speed 15 mph    
Max Gust Speed 24 mph    
Visibility 10 miles    
Events      
T = Trace of Precipitation, MM = Missing Value Source: NWS Daily Summary

Daily Weather History Graph

Daily Weather History Graph

Search for Another Location

Airport or City:

Trip Planner

Search our weather history database for the weather conditions in past years. The results will help you decide how hot, cold, wet, or windy it might be!

Date:

Astronomy

Jan. 13, 2014 Rise Set
Actual Time 7:30 AM EST 4:40 PM EST
Civil Twilight 6:58 AM EST 5:13 PM EST
Nautical Twilight 6:21 AM EST 5:49 PM EST
Astronomical Twilight 5:47 AM EST 6:24 PM EST
Moon 2:54 PM EST (1/13) 5:16 AM EST (1/13)
Length of Visible Light 10h 15m
Length of Day
9h 10m
Waxing Gibbous, 95% of the Moon is Illuminated
Jan 13
Waxing Gibbous
Jan 15
Full
Jan 24
Last Quarter
Jan 30
New
Feb 6
First Quarter

Hourly Weather History & Observations

Time (EST) Temp. Windchill Dew Point Humidity Pressure Visibility Wind Dir Wind Speed Gust Speed Precip Events Conditions
12:51 AM 28.9 °F 21.1 °F 23.0 °F 78% 29.94 in 10.0 mi WSW 8.1 mph - N/A   Overcast
1:49 AM 24.8 °F 16.9 °F 21.2 °F 86% 29.89 in 10.0 mi SSW 6.9 mph - N/A   Scattered Clouds
1:51 AM 25.0 °F 17.1 °F 21.9 °F 88% 29.96 in 10.0 mi SSW 6.9 mph - N/A   Scattered Clouds
2:51 AM 25.0 °F 20.7 °F 21.9 °F 88% 29.96 in 9.0 mi SSW 3.5 mph - N/A   Clear
3:51 AM 26.1 °F 19.4 °F 23.0 °F 88% 29.97 in 9.0 mi SW 5.8 mph - N/A   Clear
4:51 AM 25.0 °F 19.3 °F 21.9 °F 88% 29.94 in 9.0 mi SW 4.6 mph - N/A   Clear
5:51 AM 24.1 °F - 21.9 °F 91% 29.92 in 10.0 mi Calm Calm - N/A   Clear
6:51 AM 19.9 °F - 19.0 °F 96% 29.92 in 7.0 mi Calm Calm - N/A   Clear
7:51 AM 21.9 °F - 19.9 °F 92% 29.90 in 6.0 mi Calm Calm - N/A   Clear
8:51 AM 32.0 °F 26.4 °F 21.9 °F 66% 29.90 in 10.0 mi West 5.8 mph - N/A   Clear
9:51 AM 34.0 °F 26.6 °F 21.9 °F 61% 29.89 in 10.0 mi WSW 9.2 mph - N/A   Clear
10:51 AM 36.0 °F 29.6 °F 23.0 °F 59% 29.86 in 10.0 mi WSW 8.1 mph - 0.00 in   Clear
11:51 AM 39.9 °F 31.8 °F 25.0 °F 55% 29.83 in 10.0 mi SSW 15.0 mph 24.2 mph N/A   Clear
12:51 PM 41.0 °F 33.1 °F 27.0 °F 57% 29.80 in 10.0 mi SSW 15.0 mph - N/A   Clear
1:51 PM 43.0 °F 36.0 °F 28.0 °F 56% 29.78 in 10.0 mi SSW 13.8 mph - N/A   Clear
2:51 PM 44.1 °F 37.4 °F 27.0 °F 51% 29.78 in 10.0 mi SW 13.8 mph - N/A   Clear
4:51 PM 41.0 °F 34.7 °F 26.1 °F 55% 29.70 in 10.0 mi SW 10.4 mph - N/A   Unknown
5:51 PM 42.1 °F 37.1 °F 24.1 °F 49% 29.71 in 10.0 mi SW 8.1 mph - N/A   Overcast
6:51 PM 41.0 °F 34.7 °F 26.1 °F 55% 29.70 in 10.0 mi SW 10.4 mph - N/A   Clear
7:51 PM 43.0 °F 36.4 °F 24.1 °F 47% 29.69 in 10.0 mi SW 12.7 mph 19.6 mph N/A   Scattered Clouds
8:51 PM 42.1 °F 35.2 °F 24.1 °F 49% 29.66 in 10.0 mi SSW 12.7 mph - N/A   Mostly Cloudy
9:51 PM 42.1 °F 35.2 °F 25.0 °F 51% 29.66 in 10.0 mi SW 12.7 mph - N/A   Overcast
10:51 PM 39.9 °F 32.9 °F 28.0 °F 63% 29.67 in 10.0 mi SW 11.5 mph - N/A   Overcast
11:51 PM 39.0 °F 32.3 °F 32.0 °F 76% 29.66 in 10.0 mi SW 10.4 mph - N/A   Overcast